Find Starlink 11350

NORAD ID: 61540 Int'l Des: 2024-184 Owner: SPXS Country: US Constellation: starlink operational
LEOCIRCULAR

Live-Position

3D-Globus wird geladen...

Über Starlink 11350

Beschreibung wird geladen...

Nächste Überflüge

Passes for default location (London). Set your location on the main map for personalized predictions.

Höhenverlauf

Loading altitude history...

Zweizeiliger Elementsatz

1 61540U 24184J 26126.89192915 -.00001320 00000-0 -60382-5 0 9998
2 61540 53.1587 308.9782 0001178 112.7112 247.4030 15.69711475 89560
Epoch: 6. Mai 2026 • Age: 12 hours

Aktueller Status

Höhe 360.2 km
Geschwindigkeit 7.69 km/s
Subsatellitenpunkt 7.90°N, 57.95°W
Startdatum 15. Okt. 2024
Alter 1.5 years
Typ internet

Technische Details

Klassifizierung Payload
Masse 960.00 kg
Trockenmasse 910.00 kg
Gesamtmasse 960.00 kg
Länge 0.30 m
Durchmesser 4.10 m
Spannweite 29.00 m
Form Box + pan
Hersteller SPXS
Bus-Typ Starlink V2MD
Phasenstatus In Orbit
Besitzer/Staat SPXS/US

Most Searched